Regional Weather Roundup
Issued by NWS

Home | Current Version | Previous Version | Text Only | Print | Product List | Glossary Off
Versions: 1 2 3 4 5 6 7 8 9 10 11 12 13 14 15 16 17 18 19 20 21 22 23 24 25 26 27 28 29 30 31 32 33 34 35 36 37 38 39 40 41 42 43 44 45 46 47 48 49 50

000
ASUS43 KOAX 111702
RWRNE

WEATHER ROUNDUP FOR NEBRASKA
NATIONAL WEATHER SERVICE OMAHA NE
1100 AM CST THU FEB 11 2016

NOTES: SATELLITE DATA IS BEING USED TO AUGMENT CLOUD COVER ABOVE
       12000 FEET.
       "FAIR" INDICATES FEW OR NO CLOUDS BELOW 12,000 FEET WITH NO
       SIGNIFICANT WEATHER AND/OR OBSTRUCTIONS TO VISIBILITY.

  * THESE STATIONS DO NOT REPORT WEATHER SUCH AS RAIN...SNOW OR FOG.

NEZ001>004-019>022-054>056-111800-
NEBRASKA PANHANDLE

CITY           SKY/WX    TMP DP  RH WIND       PRES   REMARKS
SCOTTSBLUFF    SUNNY     50  27  40 NW15      30.10R
ALLIANCE       MOSUNNY   39  30  70 W13       30.06R WCI  31
CHADRON        CLOUDY    45  30  55 SW8       30.06R
KIMBALL        CLOUDY    47  27  44 W13       30.12R
SIDNEY         CLOUDY    47  29  49 W10       30.10R
$$

NEZ057>060-069>072-079>082-111800-
SOUTHWEST NEBRASKA

CITY           SKY/WX    TMP DP  RH WIND       PRES   REMARKS
NORTH PLATTE   PTSUNNY   29  26  89 S12       30.10F WCI  19
IMPERIAL       MOSUNNY   41  29  62 W6        30.09F
LEXINGTON      CLOUDY    30  28  92 S14       30.15F FOG     WCI  19
MCCOOK         CLOUDY    29  29 100 SE9       30.15F FOG     WCI  20
OGALLALA       CLOUDY    38  29  71 CALM      30.07S
$$

NEZ005>010-023>029-035>040-094-111800-
NORTH CENTRAL NEBRASKA

CITY           SKY/WX    TMP DP  RH WIND       PRES   REMARKS
VALENTINE      CLOUDY    32  30  92 S10       30.05F WCI  24
AINSWORTH      CLOUDY    30  30  98 S10       30.08R FOG     WCI  21
BROKEN BOW     CLOUDY    30  28  92 S13       30.13S WCI  20
O`NEILL        CLOUDY    26  25  96 SE12      30.14F FOG     WCI  15
ORD            CLOUDY    27  25  92 S9        30.16S FOG     WCI  18
THEDFORD       MOSUNNY   34  31  88 S12       30.05F WCI  26
$$

NEZ041-046>049-061>064-073>077-083>087-111800-
SOUTH CENTRAL NEBRASKA

CITY           SKY/WX    TMP DP  RH WIND       PRES   REMARKS
GRAND ISLAND   CLOUDY    25  22  88 S8        30.23R FOG     WCI  16
AURORA         CLOUDY    24  22  92 SE10      30.21F WCI  14
HASTINGS       CLOUDY    26  23  88 S7        30.21F FOG     WCI  18
HEBRON         CLOUDY    23  21  89 SE7       30.27S WCI  15
HOLDREGE       CLOUDY    29  27  92 S9        30.19F WCI  20
KEARNEY *      CLOUDY    28  25  86 S14       30.19F WCI  17
YORK           CLOUDY    23  19  86 S5        30.25S WCI  17
$$

NEZ011>018-030>034-042>045-111800-
NORTHEAST NEBRASKA

CITY           SKY/WX    TMP DP  RH WIND       PRES   REMARKS
NORFOLK        CLOUDY    21  16  81 SE14      30.22F WCI   8
ALBION         CLOUDY    22  20  90 S9        30.21S FOG     WCI  12
BLAIR          CLOUDY    18   8  65 SE3       30.29R
COLUMBUS *     CLOUDY    19   9  63 SE6       30.26S WCI  11
FREMONT        CLOUDY    19   8  64 CALM      30.31R
TEKAMAH        CLOUDY    17   8  67 S6        30.33R WCI   9
WAYNE          CLOUDY    18  12  77 S10       30.26F WCI   6
$$

NEZ050>053-065>068-078-088>093-111800-
SOUTHEAST NEBRASKA

CITY           SKY/WX    TMP DP  RH WIND       PRES   REMARKS
LINCOLN        CLOUDY    22  17  81 E5        30.30S WCI  16
OMAHA EPPLEY   CLOUDY    18   6  59 SE6       30.32S WCI  10
BEATRICE       CLOUDY    23  20  89 S6        30.29S WCI  15
NEBRASKA CITY  CLOUDY    24  15  70 SE7       30.30S WCI  16
PLATTSMOUTH    CLOUDY    20  11  67 SE3       30.30S
$$

NEZ044-045-051>053-067-111800-
OMAHA AREA

CITY           SKY/WX    TMP DP  RH WIND       PRES   REMARKS
OMAHA EPPLEY   CLOUDY    18   6  59 SE6       30.32S WCI  10
BLAIR          CLOUDY    18   8  65 SE3       30.29R
FREMONT        CLOUDY    19   8  64 CALM      30.31R
MILLARD        CLOUDY    20   8  59 SE3       30.32R
OFFUTT AFB     CLOUDY    19   7  58 SE7       30.31S WCI  10
PLATTSMOUTH    CLOUDY    20  11  67 SE3       30.30S
WAHOO          CLOUDY    20  13  72 SE7       30.31R WCI  11
$$



USA.gov is the U.S. government's official web portal to all federal, state and local government web resources and services.